Flag for Slovakia Weather past 2 weeks in Bratislava, Slovakia

Now
75 °F

Passing clouds.


Feels Like: 78 °F
Forecast: 58 / 72 °F
Wind: 2 mph from North

Location: Bratislava Ivanka

Current Time: May 30, 2015 at 1:11:05 PM

Latest Report: May 30, 2015 at 1:00 PM


Visibility: N/A

Pressure: 29.95 "Hg

Humidity: 50%

Dew point: 55 °F

Location of BratislavaLocation

Historic Weather in Bratislava — Graph

°F

Bratislava temperature yesterday

Maximum temperature yesterday: 73 °F (at 3:00 PM)
Minimum temperature yesterday: 43 °F (at 3:30 AM)
Average temperature yesterday: 59 °F

Past Weeks' High & Low Weather Summary

 TemperatureHumidityPressure
High77 °F (May 19, 2:00 PM)94% (May 20, 3:30 AM)30.21 "Hg (May 20, 3:30 AM)
Low43 °F (May 29, 3:30 AM)27% (May 16, 6:00 PM)29.74 "Hg (May 26, 12:30 AM)
Average59 °F70%29.98 "Hg
* Reported May 15 12:00 Noon — May 30 12:00 Noon, Bratislava, Weather by CustomWeather, © 2015

Note: Actual official high and low records may vary slightly from our data, if they occured in-between our weather recording intervals... More about our weather records

Advertising

Bratislava weather history for previous 24 hours

 ConditionsComfort  
Time TempWeatherWind HumidityBarometerVisibility
12:00 PM
Sat, May 30
72 °FScattered clouds.2 mph47%29.95 "HgN/A
11:30 AM72 °FScattered clouds.3 mph53%29.95 "HgN/A
11:00 AM70 °FPartly sunny.2 mph53%29.95 "HgN/A
10:30 AM68 °FPassing clouds.1 mph53%29.95 "HgN/A
10:00 AM66 °FPassing clouds.5 mph60%29.95 "HgN/A
9:30 AM64 °FPassing clouds.5 mph60%29.95 "HgN/A
9:00 AM63 °FSunny.5 mph68%29.95 "Hg10 mi
8:30 AM64 °FPassing clouds.3 mph64%29.95 "HgN/A
8:00 AM61 °FSunny.6 mph72%29.95 "Hg10 mi
7:30 AM59 °FSunny.5 mph82%29.92 "Hg10 mi
7:00 AM57 °FSunny.5 mph82%29.92 "Hg10 mi
6:30 AM57 °FPassing clouds.3 mph82%29.92 "HgN/A
6:00 AM52 °FPassing clouds.3 mph94%29.92 "HgN/A
5:30 AM54 °FClear.6 mph88%29.92 "Hg10 mi
5:00 AM54 °FClear.5 mph88%29.92 "Hg10 mi
4:30 AM55 °FClear.5 mph88%29.89 "Hg10 mi
4:00 AM55 °FClear.3 mph88%29.89 "Hg10 mi
3:30 AM54 °FClear.3 mph88%29.89 "Hg10 mi
3:00 AM54 °FClear.5 mph88%29.89 "Hg10 mi
2:30 AM54 °FClear.3 mph88%29.89 "Hg10 mi
2:00 AM54 °FClear.6 mph88%29.89 "Hg10 mi
1:30 AM54 °FClear.5 mph88%29.89 "Hg10 mi
1:00 AM54 °FClear.6 mph88%29.89 "Hg10 mi
12:30 AM55 °FClear.6 mph82%29.92 "Hg10 mi
12:00 AM55 °FClear.6 mph82%29.89 "Hg10 mi
11:30 PM
Fri, May 29
57 °FClear.3 mph77%29.89 "Hg10 mi
10:30 PM59 °FClear.2 mph72%29.89 "Hg10 mi
10:00 PM61 °FClear.6 mph72%29.89 "Hg10 mi
9:30 PM61 °FSunny.6 mph72%29.89 "Hg10 mi
9:00 PM63 °FSunny.5 mph68%29.89 "Hg10 mi
8:30 PM64 °FSunny.6 mph64%29.89 "Hg10 mi
8:00 PM66 °FSunny.6 mph60%29.89 "Hg10 mi
7:30 PM68 °FSunny.6 mph56%29.89 "Hg10 mi
7:00 PM70 °FPassing clouds.7 mph50%29.89 "HgN/A
6:30 PM72 °FPassing clouds.7 mph47%29.89 "HgN/A
6:00 PM72 °FPassing clouds.9 mph44%29.92 "HgN/A
5:30 PM73 °FSunny.10 mph41%29.92 "Hg10 mi
5:00 PM73 °FPassing clouds.8 mph41%29.92 "HgN/A
4:30 PM73 °FPassing clouds.7 mph38%29.92 "HgN/A
4:00 PM73 °FPassing clouds.7 mph41%29.92 "HgN/A
3:00 PM73 °FPassing clouds.6 mph41%29.95 "HgN/A
2:30 PM72 °FPassing clouds.6 mph41%29.95 "HgN/A
2:00 PM72 °FPassing clouds.6 mph44%29.98 "HgN/A
1:30 PM70 °FPassing clouds.3 mph46%29.98 "HgN/A
1:00 PM70 °FPassing clouds.3 mph46%29.98 "HgN/A
Weather by CustomWeather, © 2015

See weather overviewHow to use our weather pages